Location: Enikep?du
(16.5133°N, 80.7066°E)
Time: 12:02:19
(UTC+00:00)

Cosmos 2173 Rocket - Pass Details

Date: 15 May 2026
Orbit: 945 x 998 km, 83.0° (Epoch: 5 June)

Event Time Altitude Azimuth Distance (km) Brightness Sun altitude
Rises 13:31:49 0° 168° (SSE) 3,601 6.6 -7.8°
Reaches altitude 10° 13:34:24 10° 161° (SSE) 2,661 5.9 -8.4°
Maximum altitude 13:40:07 44° 91° (E) 1,292 4.3 -9.6°
Drops below altitude 10° 13:45:54 10° 21° (NNE) 2,691 6.4 -10.9°
Sets 13:48:31 0° 15° (NNE) 3,646 7.1 -11.5°
